PARS 1

Last updated on Sun Jul 06 2025 00:02:29 GMT+0000 (Coordinated Universal Time)

1 59065U 24039Q 25186.61963649 .00007204 00000+0 20174-3 0 9998 2 59065 97.4401 154.9510 0009351 287.0799 72.9421 15.36902020 75260
UTC large
Height (km)
Speed (km/s)
/
Latitude / Longitude
Inclination (degrees)
Orbital Period (minutes)
Azimuth
Elevation
Range (km)
Doppler Factor

Next 0 passes for location: London (51.5072 / 0.1276)

Sorry there are no passes over London.